Flag Weather past 2 weeks in Independence, Missouri, U.S.A.

Now
27 °F

Overcast.


Feels Like: 16 °F
Forecast: 25 / 37 °F
Wind: 13 mph from North

Location: Lee's Summit Municipal Airport

Current Time: Nov 27, 2014 at 5:06:13 AM

Latest Report: Nov 27, 2014 at 3:53 AM


Visibility: 10 mi

Pressure: 30.50 "Hg

Humidity: 75%

Dew point: 20 °F

Location of IndependenceLocation

Historic Weather in Independence — Graph

°F

Independence temperature yesterday

Maximum temperature yesterday: 41 °F (at 9:53 AM)
Minimum temperature yesterday: 28 °F (at 11:53 PM)
Average temperature yesterday: 35 °F

Past Weeks' High & Low Weather Summary

 TemperatureHumidityPressure
High48 °F (Nov 21, 9:53 PM)93% (Nov 21, 11:53 PM)30.60 "Hg (Nov 21, 11:53 PM)
Low11 °F (Nov 18, 1:53 AM)25% (Nov 25, 12:53 PM)29.69 "Hg (Nov 24, 7:53 AM)
Average28 °F60%30.25 "Hg
* Reported Nov 12 3:53 AM — Nov 27 3:53 AM, Independence, Weather by CustomWeather, © 2014

Note: Actual official high and low records may vary slightly from our data, if they occured in-between our weather recording intervals... More about our weather records

Advertising

Independence weather history for previous 24 hours

 ConditionsComfort  
Time TempWeatherWind HumidityBarometerVisibility
3:53 AM
Nov 27
27 °FOvercast.13 mph75%30.50 "Hg10 mi
2:53 AM27 °FOvercast.9 mph78%30.49 "Hg9 mi
1:53 AM28 °FOvercast.9 mph75%30.47 "Hg10 mi
12:53 AM28 °FOvercast.12 mph75%30.45 "Hg10 mi
11:53 PM
Nov 26
28 °FOvercast.15 mph78%30.43 "Hg10 mi
10:53 PM29 °FOvercast.15 mph75%30.40 "Hg10 mi
9:53 PM30 °FOvercast.18 mph72%30.36 "Hg10 mi
8:53 PM31 °FOvercast.14 mph73%30.33 "Hg10 mi
7:53 PM31 °FOvercast.21 mph73%30.30 "Hg10 mi
6:53 PM32 °FOvercast.15 mph73%30.26 "Hg10 mi
5:53 PM32 °FOvercast.16 mph75%30.22 "Hg10 mi
4:53 PM34 °FOvercast.17 mph76%30.17 "Hg10 mi
3:53 PM35 °FOvercast.17 mph75%30.14 "Hg10 mi
2:53 PM36 °FOvercast.20 mph79%30.10 "Hg10 mi
1:53 PM40 °FMostly cloudy.18 mph68%30.05 "Hg10 mi
1:01 PM40 °FOvercast.26 mph68%30.01 "Hg10 mi
12:53 PM41 °FOvercast.22 mph65%30.02 "Hg10 mi
11:53 AM41 °FOvercast.16 mph67%30.01 "Hg10 mi
10:53 AM41 °FOvercast.20 mph70%30.01 "Hg10 mi
9:53 AM41 °FCloudy.10 mph74%29.99 "Hg10 mi
8:53 AM39 °FScattered clouds.8 mph82%29.98 "Hg10 mi
7:53 AM35 °FSunny.8 mph92%29.97 "Hg10 mi
6:53 AM35 °FPassing clouds.6 mph92%29.96 "Hg10 mi
5:53 AM35 °FMostly cloudy.9 mph88%29.96 "Hg10 mi
5:04 AM33 °FLight snow. Overcast.8 mph92%29.94 "Hg8 mi
Weather by CustomWeather, © 2014

See weather overviewHow to use our weather pages